Current weather by "City, St" or "zip code"  
 

Current Conditions: Claxton Evans County Airport, GA

Mostly Cloudy


83.0 F

Last Updated on Oct 24 2020, 12:55 pm EDT
Humidity: 52%
Wind Speed: N 0.0 mph
Barometer 30.02 in
Dewpoint: 64.2 F
Visibility: 7.00 mi
Precip: --
Heat Index: 84 F
Wind Chill: NA
Current conditions at:

Claxton Evans County Airport, GA (KCWV)

Lat: 32.1951 Lon: 81.8696

Local Radar Image active severe weather and emergency alerts image image weather storm and storm spotter reports image weather observation monitoring service image
Local
Radar
Active
Alerts
Storm Reports Obs
Monitoring

Sign-up For Email & Text Message Weather Alert Notification Services



Advertise Here

Observation History for Claxton Evans County Airport, GA


Time Wind
(mph)
Vis
(mi)
Weather Precip (in) Temperature (F) Relative
Humidity
Wind
Chill
(F)
Heat
Index
(F)
Pressure
Air Dwpt altimeter
(in)
sea level
(mb)
Rmks
12:55 pm EDT N 0.0 7.00 Mostly Cloudy -- 83.0 64.2 52% NA 84 30.02 M
11:55 am EDT N 0.0 5.00 Fair with Haze -- 82.0 66.0 59% NA 84 30.04 M
10:55 am EDT N 0.0 5.00 Fair with Haze -- 76.0 69.6 82% NA NA 30.05 M
9:55 am EDT N 0.0 2.00 Fog/Mist -- 70.0 68.9 96% NA NA 30.06 M
8:55 am EDT N 0.0 1.75 Fog/Mist -- 66.0 65.5 97% NA NA 30.04 M
7:55 am EDT N 0.0 0.15 Fog -- 64.0 62.8 97% NA NA 30.04 M
6:55 am EDT N 0.0 0.25 Fog -- 64.0 62.6 97% NA NA 30.04 M
5:55 am EDT N 0.0 0.50 Fog -- 63.0 62.2 97% NA NA 30.03 M
4:55 am EDT N 0.0 7.00 Partly Cloudy -- 63.0 61.5 96% NA NA 30.02 M
3:55 am EDT N 0.0 4.00 Fog/Mist -- 63.0 62.1 97% NA NA 30.03 M
2:55 am EDT N 0.0 1.75 Fog/Mist -- 64.0 62.8 96% NA NA 30.04 M
1:55 am EDT N 0.0 5.00 Fog/Mist -- 64.0 63.5 97% NA NA 30.04 M
12:55 am EDT N 0.0 1.00 Fog/Mist -- 65.0 64.4 96% NA NA 30.05 M
11:55 pm EDT N 0.0 2.00 Fog/Mist -- 67.0 66.0 96% NA NA 30.06 M
10:55 pm EDT N 0.0 7.00 Fair -- 68.0 66.6 96% NA NA 30.06 M
9:55 pm EDT N 0.0 0.50 Fog -- 69.0 68.2 96% NA NA 30.06 M
8:55 pm EDT N 0.0 7.00 Fair -- 71.0 68.9 94% NA NA 30.05 M
7:55 pm EDT N 0.0 10.00 Partly Cloudy -- 73.0 70.7 94% NA NA 30.05 M
7:35 pm EDT N 0.0 7.00 Mostly Cloudy -- 74.0 70.7 89% NA NA 30.05 M
6:55 pm EDT N 0.0 7.00 Mostly Cloudy -- 75.0 70.7 85% NA NA 30.04 M
5:55 pm EDT N 0.0 7.00 Mostly Cloudy -- 76.0 70.2 81% NA NA 30.04 M
4:55 pm EDT SE 6.9 7.00 Partly Cloudy -- 78.0 67.8 71% NA NA 30.05 M
3:55 pm EDT N 0.0 10.00 Mostly Cloudy -- 83.0 66.7 59% NA 86 30.04 M
3:35 pm EDT N 0.0 7.00 Mostly Cloudy -- 82.0 67.5 61% NA 85 30.04 M

Regional Weather Observation


Vidalia, Vidalia Municipal Airport, GA (KVDI)

Partly Cloudy
82.0 F

Swainsboro Emanuel County Airport, GA (KSBO)

Partly Cloudy
82.0 F

Statesboro, Statesboro-Bulloch County Airport, GA (KTBR)

Partly Cloudy
81.0 F

Sylvania, Plantation Airpark, GA (KJYL)

Fair
81.0 F

Dublin, W H Bud Barron Airport, GA (KDBN)

Partly Cloudy
84.0 F

Savannah-Hilton Head International Airport, GA (KSAV)

Partly Cloudy
83.0 F